Content
SEND FEEDBACK

Daily
Averages
Monthly
Summary
United States of America

FAYETTEVILLE, TENNESSEE


Home > North America > United States > Tennessee
Elevation: 700 feet     Latitude: 35 10N     Longitude: 086 33W

WEATHER
 
SELECT A DAY
Number of Records: 298,526;   Date Range: 4/22/02 - 9/16/14
 
SHARE

PRINT THIS DATA

[ ← Previous Day ]
WEATHER ALMANAC - SEPTEMBER 2, 2014
[ Next Day → ]
[ °C ]   °F
Weather ElementAverageHighLow
Temperature79 °F89.6 °F (1:15 pm)69.8 °F (1:15 am)
Dewpoint65.9 °F68 °F (2:55 am)60.8 °F (2:15 pm)
Humidity67 %88 % (1:15 am)38 % (2:15 pm)
Barometer30.05 in30.11 in (7:35 am)29.95 in (5:15 pm)
Wind Speed4.2 mph12.7 mph (1:15 pm)
Wind Gust19.6 mph (4:35 pm)
Weather ElementAverage
Visibility9.7 mi
Wind DirectionESE (116.6 °)

Weather ElementTotal
Precipitation---
Cooling Degree Days14.7 (Base 65)
Growing Degree Days29.7 (Base 50)
Averaged from 70 records on September 2, 2014
WEATHER CONDITIONS BREAKOUT
WIND DIRECTION BREAKOUT
WEATHER BY HOUR - SEPTEMBER 2, 2014
[ °C ]   °F
Local TimeTemperatureDewpointHumidityBarometerVisibilityWind DirectionWind SpeedGust SpeedPrecipitationEventsConditions
12:35 AM71.6 °F66.2 °F83 %30.06 in7.0 miCalmClear
12:55 AM71.6 °F66.2 °F83 %30.06 in7.0 miCalmClear
1:15 AM69.8 °F66.2 °F88 %30.05 in10.0 miCalmClear
1:35 AM69.8 °F66.2 °F88 %30.06 in10.0 miCalmClear
1:55 AM69.8 °F66.2 °F88 %30.06 in10.0 miCalmClear
2:15 AM69.8 °F66.2 °F88 %30.07 in10.0 miCalmClear
2:35 AM69.8 °F66.2 °F88 %30.08 in10.0 miCalmClear
2:55 AM71.6 °F68.0 °F88 %30.07 in7.0 miCalmClear
3:15 AM73.4 °F68.0 °F83 %30.07 in10.0 miCalmClear
3:35 AM71.6 °F68.0 °F88 %30.07 in10.0 miCalmClear
3:55 AM71.6 °F68.0 °F88 %30.06 in10.0 miSE (140°)4.6 mphClear
4:15 AM71.6 °F68.0 °F88 %30.07 in10.0 miCalmClear
4:35 AM71.6 °F64.4 °F78 %30.07 in10.0 miCalmClear
4:55 AM69.8 °F66.2 °F88 %30.08 in7.0 miCalmClear
5:15 AM69.8 °F66.2 °F88 %30.08 in10.0 miCalmClear
5:35 AM71.6 °F66.2 °F83 %30.09 in10.0 miCalmClear
5:55 AM71.6 °F66.2 °F83 %30.09 in10.0 miCalmClear
6:15 AM69.8 °F64.4 °F83 %30.10 in7.0 miCalmClear
6:35 AM69.8 °F66.2 °F88 %30.10 in7.0 miCalmClear
6:55 AM69.8 °F66.2 °F88 %30.10 in10.0 miCalmClear
7:15 AM71.6 °F66.2 °F83 %30.10 in10.0 miCalmClear
7:35 AM71.6 °F68.0 °F88 %30.11 in10.0 miCalmClear
7:55 AM75.2 °F68.0 °F78 %30.11 in10.0 miCalmClear
8:15 AM77.0 °F68.0 °F74 %30.11 in10.0 miSSW (200°)3.5 mphClear
8:35 AM78.8 °F68.0 °F69 %30.10 in10.0 miSSW (200°)5.8 mphClear
8:55 AM80.6 °F68.0 °F65 %30.11 in10.0 miSW (230°)4.6 mphClear
9:15 AM80.6 °F68.0 °F65 %30.11 in10.0 miSW (230°)6.9 mphClear
9:35 AM82.4 °F68.0 °F62 %30.10 in10.0 miSW (220°)8.1 mphClear
9:55 AM82.4 °F68.0 °F62 %30.10 in10.0 miWSW (240°)6.9 mphClear
10:15 AM82.4 °F68.0 °F62 %30.10 in10.0 miWest (260°)9.2 mphClear
10:35 AM84.2 °F68.0 °F58 %30.10 in10.0 miSW (220°)6.9 mphScattered Clouds
10:55 AM86.0 °F66.2 °F51 %30.10 in10.0 miSW (220°)6.9 mphScattered Clouds
11:15 AM86.0 °F66.2 °F51 %30.10 in10.0 miSW (220°)8.1 mphScattered Clouds
11:35 AM86.0 °F66.2 °F51 %30.09 in10.0 miWSW (240°)8.1 mphScattered Clouds
11:55 AM87.8 °F64.4 °F46 %30.09 in10.0 miSSW (210°)6.9 mphClear
12:15 PM87.8 °F64.4 °F46 %30.08 in10.0 miSW (220°)6.9 mphClear
12:35 PM87.8 °F64.4 °F46 %30.07 in10.0 miSSW (210°)10.4 mphScattered Clouds
12:55 PM87.8 °F64.4 °F46 %30.06 in10.0 miSW (220°)4.6 mphClear
1:15 PM89.6 °F64.4 °F43 %30.06 in10.0 miSSW (210°)12.7 mph16.1 mphClear
1:35 PM89.6 °F62.6 °F40 %30.05 in10.0 miSW (220°)10.4 mphClear
1:55 PM89.6 °F62.6 °F40 %30.04 in10.0 miSW (220°)10.4 mphClear
2:15 PM89.6 °F60.8 °F38 %30.03 in10.0 miSouth (190°)12.7 mphClear
2:35 PM89.6 °F62.6 °F40 %30.02 in10.0 miSW (220°)11.5 mphScattered Clouds
2:55 PM89.6 °F60.8 °F38 %30.01 in10.0 miSSW (200°)8.1 mph17.3 mphScattered Clouds
3:15 PM89.6 °F62.6 °F40 %30.00 in10.0 miWSW (240°)9.2 mph18.4 mphScattered Clouds
3:35 PM89.6 °F60.8 °F38 %30.00 in10.0 miSSW (210°)11.5 mphScattered Clouds
3:55 PM89.6 °F62.6 °F40 %30.00 in10.0 miSW (220°)11.5 mphScattered Clouds
4:15 PM89.6 °F62.6 °F40 %29.98 in10.0 miSW (230°)8.1 mphScattered Clouds
4:35 PM89.6 °F60.8 °F38 %29.97 in10.0 miSW (220°)11.5 mph19.6 mphClear
4:55 PM89.6 °F62.6 °F40 %29.96 in10.0 miWSW (250°)12.7 mph18.4 mphClear
5:15 PM87.8 °F62.6 °F43 %29.95 in10.0 miWSW (250°)11.5 mphClear
5:55 PM86.0 °F60.8 °F43 %29.96 in10.0 miSW (230°)10.4 mphClear
6:15 PM84.2 °F62.6 °F48 %29.98 in10.0 miWSW (250°)6.9 mphClear
6:35 PM82.4 °F64.4 °F54 %29.98 in10.0 miWSW (250°)6.9 mphClear
6:55 PM80.6 °F64.4 °F58 %29.99 in10.0 miWest (280°)6.9 mphClear
7:15 PM80.6 °F66.2 °F61 %29.99 in10.0 miWest (270°)4.6 mphClear
7:35 PM78.8 °F68.0 °F69 %29.99 in10.0 miWSW (250°)3.5 mphClear
7:55 PM78.8 °F68.0 °F69 %29.99 in10.0 miCalmClear
8:15 PM77.0 °F68.0 °F74 %29.98 in10.0 miCalmClear
8:35 PM77.0 °F68.0 °F74 %29.98 in10.0 miCalmClear
8:55 PM75.2 °F68.0 °F78 %30.00 in10.0 miCalmClear
9:15 PM73.4 °F68.0 °F83 %30.03 in10.0 miCalmClear
9:35 PM73.4 °F68.0 °F83 %30.04 in10.0 miCalmClear
9:55 PM73.4 °F68.0 °F83 %30.04 in10.0 miCalmClear
10:15 PM75.2 °F68.0 °F78 %30.04 in10.0 miCalmClear
10:35 PM75.2 °F68.0 °F78 %30.05 in10.0 miWest (270°)5.8 mphClear
10:55 PM77.0 °F68.0 °F74 %30.05 in10.0 miCalmScattered Clouds
11:15 PM75.2 °F68.0 °F78 %30.05 in10.0 miCalmScattered Clouds
11:35 PM75.2 °F68.0 °F78 %30.04 in10.0 miCalmClear
11:55 PM73.4 °F68.0 °F83 %30.04 in10.0 miCalmThunderstormClear
Hourly data recorded from KMDQ, located miles away from Fayetteville, Tennessee







STORIES FROM OUR PARTNERS